User: anonymous   Login
Location: Byszew
(52.1813°N, 19.2693°E)
Time: 10:34:53
(UTC+00:00)
Language:

Cosmos 2369 Rocket - Orbit

View from above orbital plane
View from above orbital plane
View from above satellite
View from above satellite

Ground track
Ground track

The orbit data is extracted from the following two-line orbital elements,

1 26070U 00006B   21132.62607661 -.00000198  00000-0 -76985-4 0  9993
2 26070  71.0030 201.5320 0017511 335.7411  24.2886 14.15476608 99213
Epoch (UTC): 12 May 2021 15:01:33
Eccentricity: 0.0017511
inclination: 71.0030°
perigee height: 828 km
apogee height: 853 km
right ascension of ascending node: 201.5320°
argument of perigee: 335.7411°
revolutions per day: 14.15476608
mean anomaly at epoch: 24.2886°
orbit number at epoch: 9921

The dashed part of the orbit path shows where the satellite is in the earth's shadow,  

DLR